Location: Unspecified
(0.0000°N, 0.0000°E)
Time: 18:18:33
(UTC+00:00)

Kosmos-2004 - Pass Details

Date: 20 May 2026
Orbit: 969 x 1012 km, 83.0° (Epoch: 10 June)

Event Time Altitude Azimuth Distance (km) Brightness Sun altitude
Exits shadow 05:14:47 - 216° (SW) 3,077 8.1 -9.8°
Reaches altitude 10° 05:16:02 10° 223° (SW) 2,711 7.8 -9.5°
Maximum altitude 05:20:44 23° 273° (W) 1,941 7.1 -8.4°
Drops below altitude 10° 05:25:28 10° 323° (NW) 2,715 8.2 -7.3°
Sets 05:28:32 0° 337° (NNW) 3,666 9.0 -6.6°
